User: anonymous   Login
Location: Unspecified
(0.0000°N, 0.0000°E)
Time: 20:35:54
(UTC+00:00)
Language:

UGATUSAT - Orbit

View from above orbital plane
View from above orbital plane
View from above satellite
View from above satellite

Ground track
Ground track

The orbit data is extracted from the following two-line orbital elements,

1 35869U 09049E   17234.40976344 -.00000003  00000-0  17315-4 0  9992
2 35869  98.4127 252.3921 0003734 323.7515  36.3410 14.22372923411571
Epoch (UTC): 22 August 2017 09:50:03
Eccentricity: 0.0003734
inclination: 98.4127°
perigee height: 814 km
apogee height: 820 km
right ascension of ascending node: 252.3921°
argument of perigee: 323.7515°
revolutions per day: 14.22372923
mean anomaly at epoch: 36.3410°
orbit number at epoch: 41157

The dashed part of the orbit path shows where the satellite is in the earth's shadow,  

DLR